Starlink 6201

operational
NORAD ID: 56486 Int'l Des: 2023-064 Owner: SPXS Country: US Constellation: starlink
LEOCIRCULAR

Über Starlink 6201

Beschreibung wird geladen...

Live-Position

3D-Globus wird geladen...

Nächste Überflüge

Höhenverlauf

Altitude vs Time

uPlot chart will show altitude changes over time

Zweizeiliger Elementsatz

1 56486U 23064AQ 26063.16670139 .01263226 78580-3 31904-2 0 9996
2 56486 69.9961 129.4005 0003696 274.3933 103.9079 15.95533639 5842
Epoch: 4. März 2026 • Age: 24 hours

Aktueller Status

Höhe 288.7 km
Geschwindigkeit 7.74 km/s
Subsatellitenpunkt 44.17°N, 10.21°W
Startdatum 10. Mai 2023
Alter 2.8 years
Typ internet

Technische Details

Klassifizierung Payload
Masse 305.00 kg
Trockenmasse 290.00 kg
Gesamtmasse 305.00 kg
Länge 0.20 m
Durchmesser 2.80 m
Spannweite 9.00 m
Form Box + pan
Hersteller SPXS
Bus-Typ Starlink
Phasenstatus In Orbit
Besitzer/Staat SPXS/US

Große Konstellationen

Loading constellations...